Terminal Aerodrome Forecast
Issued by NWS

Home | Current Version | Previous Version | Text Only | Print | Product List | Glossary On
Versions: 1 2 3 4 5 6 7 8 9 10 11 12 13
000
FTUS45 KGGW 062300
TAFSDY
TAF
KSDY 062329Z 0700/0724 31020KT P6SM -SHRA OVC025
     FM070300 35015KT P6SM OVC040
     FM071200 33015KT P6SM SCT080
      AMD LTD TO CLD VIS AND WIND=

USA.gov is the U.S. government's official web portal to all federal, state and local government web resources and services.